Location: Butte
(46.0040°N, 112.5340°W)
Time: 08:52:32
(UTC-07:00)

Daily predictions for brighter satellites

Satellite Brightness Start Highest point End
(mag) Time Altitude Azimuth Time Altitude Azimuth Time Altitude Azimuth
Nadezhda 1 Rocket 4.2 18:21:30 10° N 18:27:21 45° ENE 18:33:07 10° SSE
Timation 2 Rocket 4.5 18:21:38 10° SSW 18:28:30 77° WNW 18:35:26 10° NNE
Cosmos 1733 Rocket 4.5 18:24:16 10° SSW 18:28:31 44° WNW 18:32:45 10° N
USA 215 4.1 18:25:53 10° NE 18:31:59 44° NNW 18:38:05 10° W
Resurs 01 Rocket 3.0 18:29:02 10° ESE 18:32:09 19° ENE 18:35:17 10° NNE
Cosmos 1378 Rocket 3.7 18:29:20 10° NNW 18:33:40 78° W 18:37:58 10° S
Cosmos 1833 Rocket 3.4 18:28:54 10° SW 18:34:26 57° WNW 18:40:00 10° NNE
CZ-2C R/B 4.5 18:30:24 10° SSW 18:34:29 32° W 18:38:35 10° NNW
COSMOS 2428 4.5 18:32:13 10° N 18:35:11 14° NE 18:38:09 10° ENE
DNEPR-1 R/B 3.9 18:32:19 10° NNW 18:36:29 42° NE 18:40:29 10° ESE
Cosmos 44 3.1 18:32:14 10° NNW 18:36:43 60° NE 18:40:59 10° SE
NOSS 2-2 (D) 3.9 18:33:12 10° SSW 18:37:06 46° ESE 18:41:36 10° NE
H-2A R/B 4.4 18:36:50 10° E 18:39:02 15° ENE 18:41:15 10° NNE
BREEZE-M DEB (TANK) 3.0 18:37:14 10° WNW 18:39:38 48° N 18:44:25 10° E
YAOGAN 1 4.3 18:36:32 10° SSW 18:40:35 38° W 18:44:39 10° NNW
DELTA 2 R/B (1) 4.4 18:35:43 10° WSW 18:41:00 43° S 18:46:16 10° ESE
Cosmos 1908 Rocket 3.9 18:37:10 10° SSW 18:41:30 71° W 18:45:55 10° N
Cosmos 1812 3.0 18:41:09 10° N 18:44:52 43° ENE 18:48:34 10° SSE
FENGYUN 3A 4.2 18:41:15 10° SE 18:46:08 36° ENE 18:51:04 10° N
Cosmos 1782 Rocket 3.5 18:42:07 10° S 18:46:31 78° E 18:51:00 10° NNE
Cosmos 1992 Rocket 4.1 18:46:45 10° NNW 18:52:01 86° WSW 18:57:15 10° SSE
ERBS 4.1 18:50:34 10° WNW 18:53:45 34° SW 18:56:55 10° SSE
NOSS 2-2 (C) 3.5 18:50:11 10° SSW 18:54:13 68° SE 18:58:57 10° NE
COSMO-SKYMED 1 2.8 18:51:39 10° N 18:56:00 76° WNW 19:00:19 10° SSW
Cosmos 407 Rocket 4.1 18:51:57 10° SSE 18:56:41 36° ESE 19:01:29 10° NE
Okean 2 Rocket 3.0 18:55:00 10° S 18:59:27 79° E 19:03:55 10° NNE
Resurs 1-3 4.5 18:55:45 10° SE 18:59:31 28° ENE 19:03:17 10° N
BREEZE-M DEB (TANK) 3.1 18:58:42 10° W 19:01:10 88° N 19:08:43 14° E
FREGAT/IRIS 2.6 19:00:08 10° SSE 19:03:11 64° ENE 19:06:16 10° N
Cosmos 1709 Rocket 4.4 18:57:32 10° SSE 19:03:15 39° E 19:08:56 10° NNE
ATLAS CENTAUR R/B 3.5 18:59:31 10° W 19:03:21 26° NW 19:07:00 10° NNE
BREEZE-M DEB (TANK) 1.7 19:01:55 10° WNW 19:04:06 65° NNE 19:06:55 16° E
Cosmos 2360 Rocket 2.7 19:04:34 10° NNW 19:09:50 38° NE 19:14:35 12° ESE
Cosmos 1980 Rocket 3.9 19:05:22 10° NW 19:10:33 37° WSW 19:15:43 10° S
Cosmos 2219 Rocket 3.8 19:10:20 10° N 19:13:30 15° NE 19:15:04 14° ENE
Cosmos 2151 Rocket 3.6 19:13:15 10° S 19:17:39 58° E 19:22:07 10° NNE
METEOR-M 4.4 19:12:24 10° S 19:17:44 73° WSW 19:23:06 10° NNW
Meteor 1-18 Rocket 4.4 19:14:08 10° NNW 19:19:41 76° W 19:25:15 10° S
Cosmos 1190 Rocket 3.9 19:15:06 10° S 19:20:13 66° ESE 19:25:23 10° NNE
SJ-6B 3.0 19:16:21 10° S 19:20:24 80° WSW 19:24:24 10° NNW
Cosmos 1745 Rocket 4.2 19:14:37 10° SSW 19:20:57 76° W 19:27:15 10° N
ALOS 2.2 19:17:37 10° SSE 19:22:15 71° ENE 19:26:56 10° N
GEOS 3 Rocket 3.6 19:17:32 10° NE 19:22:45 65° SE 19:27:59 10° SSW
BREEZE-M DEB (TANK) 4.4 19:13:11 10° WNW 19:23:07 51° SW 19:26:11 12° SE
Cosmos 1238 Rocket 2.6 19:22:30 10° N 19:25:29 36° ENE 19:25:51 35° E
Cosmos 1140 Rocket 4.3 19:23:03 10° SSE 19:27:21 28° E 19:29:39 20° ENE
Spot 1 4.4 19:27:29 22° ESE 19:29:30 37° ENE 19:33:18 10° N
Cosmos 1461 2.8 19:25:31 10° NW 19:29:31 84° SW 19:33:03 14° SSE
Okean 1 Rocket 3.8 19:26:03 10° SSE 19:29:58 30° E 19:33:54 10° NNE
Cosmos 2333 Rocket 3.8 19:27:33 10° N 19:31:13 17° NE 19:32:10 16° NE
Spot 2 Rocket 3.4 19:26:42 10° SSE 19:31:42 69° ENE 19:36:46 10° N
FengYun 1-2 T 4.2 19:29:48 10° SSE 19:35:18 88° ENE 19:40:50 10° NNW
Meteor 1-19 Rocket 4.2 19:31:48 10° N 19:37:23 59° ENE 19:43:01 10° SSE
Okean 1-7 Rocket 4.2 19:34:15 10° N 19:38:29 36° ENE 19:39:21 33° E
Cosmos 2292 Rocket 4.1 19:33:44 10° S 19:38:34 81° E 19:45:12 10° N
Cosmos 1633 2.7 19:35:09 10° S 19:38:43 50° E 19:42:18 10° NNE
HJ-1C 3.7 19:36:18 10° S 19:39:40 69° WSW 19:43:03 10° NNW
Helios 1A 3.2 19:38:43 28° SE 19:40:29 46° ENE 19:44:29 10° N
SL-16 R/B 2.8 19:35:33 10° NNW 19:41:07 57° WSW 19:46:39 10° S
Okean 1 4.1 19:43:45 10° NNW 19:47:43 53° W 19:51:40 10° S
Envisat 3.6 19:47:39 33° ENE 19:47:57 33° ENE 19:52:28 10° N
Cosmos 1954 Rocket 4.0 19:43:55 10° S 19:48:58 57° ESE 19:54:05 10° NNE
Cosmos 1340 2.6 19:45:34 10° NNW 19:49:24 85° W 19:53:10 10° S
Meteor 1-13 Rocket 4.1 19:43:56 10° N 19:49:30 84° E 19:55:06 10° SSE
Tiangong 2 2.5 19:52:08 10° WSW 19:54:50 28° SSW 19:54:54 28° SSW
USA 229 DEB 4.2 19:48:37 10° NNW 19:55:21 43° NE 19:57:51 33° E
USA 229 4.3 19:48:43 10° NNW 19:55:26 43° NE 19:57:55 33° E
CZ-2D R/B 3.1 19:57:59 30° SSE 19:59:47 88° WSW 20:03:38 10° NNW
Cosmos 2322 Rocket 3.5 19:55:10 10° NW 20:00:20 39° WSW 20:05:30 10° S
Genesis I 4.2 19:58:19 10° NNW 20:01:16 33° NNE 20:01:16 33° NNE
ERS-1 Rocket 4.2 20:05:44 26° NE 20:05:44 26° NE 20:08:42 10° N
Cosmos 1025 Rocket 3.7 20:00:25 10° N 20:03:36 39° NE 20:03:36 39° NE
Meteor 1-23 Rocket 4.2 20:00:32 10° N 20:06:19 61° ENE 20:08:36 36° SE
Helios 1B rocket 4.4 20:09:41 17° S 20:09:41 17° S 20:10:42 10° S
Resurs 01 Rocket 2.5 20:04:00 10° S 20:08:17 50° W 20:12:35 10° NNW
Cosmos 2322 3.6 20:04:06 10° NNW 20:09:53 90° ENE 20:12:40 32° SSE
H-2A R/B 3.7 20:09:25 10° S 20:12:58 44° W 20:16:35 10° NNW
Cosmos 1818 3.5 20:08:07 10° SW 20:13:35 89° NW 20:16:11 32° NE
USA 215 4.3 20:11:02 23° NE 20:14:06 34° N 20:19:51 10° WNW
Meteor 2-4 Rocket 3.6 20:13:39 10° NNW 20:19:19 88° W 20:22:25 27° S
COSMOS 2428 2.6 20:15:03 10° NNW 20:20:42 62° ENE 20:21:04 60° E
Cosmos 2237 4.1 20:15:46 10° NNW 20:21:32 77° ENE 20:22:35 60° SE
Meteor 1-11 Rocket 3.9 20:20:18 10° SSW 20:26:03 74° WNW 20:31:59 10° N
USA 186 4.5 20:28:39 14° NNW 20:28:39 14° NNW 20:29:12 10° NNW
Cosmos 2333 4.2 20:20:38 10° NNW 20:26:15 60° ENE 20:26:15 60° ENE
DELTA 2 R/B (1) 4.4 20:21:45 10° W 20:26:54 37° SSW 20:27:32 36° S
Cosmos 2327 Rocket 4.3 20:21:30 10° S 20:27:38 71° E 20:33:56 10° NNE
Cosmos 1570 Rocket 3.9 20:29:47 10° NNW 20:35:02 83° WSW 20:35:19 78° SSW
Cosmos 2237 Rocket 3.5 20:30:27 10° N 20:33:59 27° NNE 20:33:59 27° NNE
SL-08 ROCKET BODY 4.5 20:34:02 10° S 20:40:12 81° W 20:46:27 10° N
Cosmos 2184 Rocket 3.9 20:38:48 10° S 20:45:09 85° W 20:51:29 10° N
Cosmos 2074 Rocket 4.0 20:40:22 10° S 20:46:37 80° W 20:52:57 10° N
Cosmos 2360 Rocket 3.5 20:48:40 10° NW 20:53:49 37° WSW 20:56:26 24° SSW
Cosmos 2208 Rocket 4.5 20:51:19 10° NNW 20:56:40 60° WSW 20:56:40 60° WSW
Cosmos 2219 Rocket 2.9 20:52:57 10° NNW 20:56:50 44° N 20:56:50 44° N
Nadezhda 3 Rocket 4.4 20:58:32 10° N 21:03:06 52° N 21:03:06 52° N
SL-16 R/B 4.1 21:01:08 10° N 21:03:09 18° N 21:03:09 18° N
Cosmos 2285 Rocket 4.1 21:00:44 10° NNW 21:06:55 75° W 21:06:55 75° W
Cosmos 2333 Rocket 3.3 21:10:44 10° NNW 21:14:12 38° NNW 21:14:12 38° NNW
USA 229 DEB 4.4 21:39:37 10° NW 21:45:19 50° W 21:45:19 50° W
USA 229 4.4 21:39:43 10° NW 21:45:24 50° W 21:45:24 50° W
USA 215 4.4 21:58:22 36° NNW 21:58:22 36° NNW 22:02:29 10° NW
ATLAS 2AS CENTAUR R/B 4.2 21:58:00 10° NW 22:03:28 33° N 22:03:28 33° N
